SWR3CA LSZH-EPWA

Flight info

Callsign SWR3CA
Flight time N/A
Altitude 35000
Route DEGES3W DEGES Z2 XEBIX N871 TULSI DCT MEBEK DCT NENUM N871 BEPAS DCT ELVOT DCT OKENO Q277 GOGUS DCT AGAVA AGAVA6U
Aircraft A21N/M-SDE3/2105

Departure

Time 2026-05-05 19:31
Airport Zürich Airport (LSZH)

Arrival

Time N/A
Airport Warsaw Chopin Airport (EPWA)
Time Latitude Longitude Altitude Speed Heading
2026-05-05 18:52 47.46192 8.55189 1384 ft 0 kts 186°
2026-05-05 19:21 47.46198 8.55189 1384 ft 2 kts 186°
2026-05-05 19:21 47.46213 8.55191 1384 ft 2 kts 186°
2026-05-05 19:21 47.46228 8.55194 1384 ft 2 kts 186°
2026-05-05 19:22 47.46241 8.55195 1384 ft 1 kts 186°
2026-05-05 19:22 47.46253 8.55195 1384 ft 2 kts 163°
2026-05-05 19:22 47.46264 8.55188 1384 ft 2 kts 144°
2026-05-05 19:22 47.46275 8.55172 1384 ft 2 kts 120°
2026-05-05 19:23 47.46280 8.55151 1384 ft 1 kts 94°
2026-05-05 19:23 47.46280 8.55145 1384 ft 0 kts 91°
2026-05-05 19:25 47.46279 8.55154 1384 ft 2 kts 96°
2026-05-05 19:26 47.46276 8.55194 1384 ft 6 kts 97°
2026-05-05 19:26 47.46270 8.55281 1385 ft 10 kts 96°
2026-05-05 19:26 47.46261 8.55404 1387 ft 13 kts 96°
2026-05-05 19:26 47.46251 8.55548 1388 ft 13 kts 96°
2026-05-05 19:27 47.46241 8.55688 1389 ft 13 kts 96°
2026-05-05 19:27 47.46232 8.55820 1392 ft 12 kts 96°
2026-05-05 19:27 47.46225 8.55934 1394 ft 10 kts 96°
2026-05-05 19:27 47.46191 8.56016 1396 ft 9 kts 136°
2026-05-05 19:28 47.46137 8.56091 1397 ft 11 kts 137°
2026-05-05 19:28 47.46075 8.56176 1399 ft 12 kts 137°
2026-05-05 19:28 47.46040 8.56272 1401 ft 10 kts 85°
2026-05-05 19:28 47.46079 8.56355 1402 ft 10 kts 45°
2026-05-05 19:29 47.46131 8.56411 1402 ft 10 kts
2026-05-05 19:29 47.46197 8.56354 1401 ft 12 kts 316°
2026-05-05 19:29 47.46215 8.56329 1400 ft 0 kts 317°
2026-05-05 19:30 47.46219 8.56323 1400 ft 2 kts 317°
2026-05-05 19:30 47.46385 8.56094 1395 ft 71 kts 317°
2026-05-05 19:30 47.46928 8.55352 1384 ft 138 kts 317°
2026-05-05 19:31 47.47759 8.54220 1572 ft 172 kts 317°
2026-05-05 19:31 47.48645 8.53097 2230 ft 171 kts 320°
2026-05-05 19:31 47.49590 8.52018 2891 ft 174 kts 322°
2026-05-05 19:31 47.50574 8.50980 3536 ft 176 kts 324°
2026-05-05 19:32 47.51573 8.50021 4158 ft 170 kts 323°
2026-05-05 19:32 47.52353 8.48829 4706 ft 163 kts 295°
2026-05-05 19:32 47.52804 8.47252 4994 ft 179 kts 287°
2026-05-05 19:32 47.53261 8.45319 4998 ft 215 kts 285°
2026-05-05 19:33 47.53426 8.43065 5287 ft 233 kts 258°
2026-05-05 19:33 47.52817 8.40783 5720 ft 248 kts 242°
2026-05-05 19:33 47.51848 8.38615 6214 ft 260 kts 225°
2026-05-05 19:33 47.50258 8.37416 6853 ft 267 kts 191°
2026-05-05 19:34 47.48396 8.37662 7509 ft 275 kts 162°
2026-05-05 19:34 47.46809 8.39225 8152 ft 284 kts 134°
2026-05-05 19:34 47.45913 8.41830 8799 ft 293 kts 103°
2026-05-05 19:35 47.45611 8.47884 10115 ft 300 kts 96°
2026-05-05 19:35 47.45465 8.50960 10765 ft 303 kts 97°
2026-05-05 19:35 47.45301 8.54062 11427 ft 308 kts 97°
2026-05-05 19:35 47.45126 8.57209 11913 ft 320 kts 97°
2026-05-05 19:36 47.44928 8.60610 12242 ft 337 kts 97°
2026-05-05 19:36 47.44722 8.64099 12571 ft 353 kts 97°
2026-05-05 19:36 47.44505 8.67755 13134 ft 360 kts 97°
2026-05-05 19:36 47.44288 8.71412 13818 ft 363 kts 97°
2026-05-05 19:37 47.44068 8.75128 14485 ft 366 kts 98°
2026-05-05 19:37 47.43842 8.78882 15111 ft 370 kts 97°
2026-05-05 19:37 47.43701 8.82695 15708 ft 375 kts 94°
2026-05-05 19:37 47.43653 8.86553 16302 ft 379 kts 93°
2026-05-05 19:38 47.43617 8.90469 16869 ft 383 kts 93°
2026-05-05 19:38 47.43573 8.94404 17395 ft 386 kts 94°
2026-05-05 19:38 47.43521 8.98351 17949 ft 390 kts 94°
2026-05-05 19:38 47.43459 9.02349 18459 ft 394 kts 94°
2026-05-05 19:39 47.43392 9.06404 19001 ft 397 kts 94°
2026-05-05 19:39 47.43321 9.10505 19542 ft 400 kts 94°
2026-05-05 19:39 47.43248 9.14574 20060 ft 403 kts 94°
2026-05-05 19:39 47.43171 9.18735 20596 ft 405 kts 94°
2026-05-05 19:40 47.43092 9.22869 21145 ft 408 kts 94°
2026-05-05 19:40 47.43011 9.27067 21639 ft 410 kts 94°
2026-05-05 19:40 47.42928 9.31283 22137 ft 413 kts 94°
2026-05-05 19:40 47.42844 9.35487 22579 ft 416 kts 94°
2026-05-05 19:41 47.42758 9.39736 23012 ft 419 kts 94°
2026-05-05 19:41 47.42668 9.44055 23435 ft 423 kts 94°
2026-05-05 19:41 47.42575 9.48403 23815 ft 425 kts 94°
2026-05-05 19:41 47.42482 9.52728 23889 ft 427 kts 94°
2026-05-05 19:42 47.42386 9.57137 23926 ft 430 kts 94°
2026-05-05 19:42 47.42287 9.61558 24327 ft 432 kts 95°
2026-05-05 19:42 47.42189 9.65930 24788 ft 433 kts 95°
2026-05-05 19:42 47.42086 9.70388 25188 ft 435 kts 96°
2026-05-05 19:43 47.41981 9.74849 25539 ft 438 kts 95°
2026-05-05 19:43 47.41872 9.79347 25903 ft 441 kts 96°
2026-05-05 19:43 47.41763 9.83848 26240 ft 443 kts 96°
2026-05-05 19:43 47.41652 9.88314 26542 ft 446 kts 96°
2026-05-05 19:44 47.41563 9.91837 26796 ft 448 kts 96°
2026-05-05 19:44 47.41446 9.96426 27129 ft 450 kts 96°
2026-05-05 19:44 47.41328 10.01032 27447 ft 453 kts 96°
2026-05-05 19:44 47.41206 10.05648 27754 ft 455 kts 96°
2026-05-05 19:45 47.41081 10.10362 28067 ft 458 kts 96°
2026-05-05 19:45 47.40954 10.15014 28363 ft 460 kts 96°
2026-05-05 19:45 47.40824 10.19732 28651 ft 463 kts 96°
2026-05-05 19:45 47.40690 10.24487 28923 ft 465 kts 96°
2026-05-05 19:46 47.40555 10.29255 29196 ft 468 kts 96°
2026-05-05 19:46 47.40416 10.34051 29468 ft 471 kts 96°
2026-05-05 19:46 47.40284 10.38863 29756 ft 473 kts 95°
2026-05-05 19:46 47.40356 10.43764 30083 ft 477 kts 89°
2026-05-05 19:47 47.40739 10.48632 30492 ft 479 kts 84°
2026-05-05 19:47 47.41424 10.53390 30886 ft 481 kts 78°
2026-05-05 19:47 47.42415 10.58096 31244 ft 482 kts 73°
2026-05-05 19:47 47.43551 10.62715 31585 ft 483 kts 71°
2026-05-05 19:48 47.44735 10.67374 31938 ft 483 kts 72°
2026-05-05 19:48 47.45900 10.72009 32324 ft 482 kts 73°
2026-05-05 19:48 47.47041 10.76620 32679 ft 482 kts 73°
2026-05-05 19:48 47.48181 10.81287 33022 ft 481 kts 73°
2026-05-05 19:49 47.49303 10.85921 33334 ft 482 kts 73°
2026-05-05 19:49 47.50042 10.88989 33517 ft 483 kts 73°
2026-05-05 19:49 47.51535 10.95203 33859 ft 485 kts 73°
2026-05-05 19:50 47.53795 11.04621 33957 ft 488 kts 73°
2026-05-05 19:50 47.56068 11.14083 33954 ft 488 kts 73°
2026-05-05 19:51 47.58330 11.23526 33940 ft 486 kts 73°
2026-05-05 19:51 47.60572 11.32953 33937 ft 485 kts 73°
2026-05-05 19:52 47.62750 11.42414 33947 ft 485 kts 75°
2026-05-05 19:52 47.65429 11.51636 33946 ft 497 kts 58°
2026-05-05 19:53 47.69784 11.59749 33936 ft 511 kts 50°
2026-05-05 19:53 47.74403 11.67798 33916 ft 511 kts 51°
2026-05-05 19:54 47.78954 11.75881 33917 ft 510 kts 51°
2026-05-05 19:54 47.83435 11.83948 33904 ft 509 kts 52°
2026-05-05 19:55 47.87911 11.92055 33896 ft 506 kts 52°
2026-05-05 19:55 47.92355 12.00133 33880 ft 505 kts 52°
2026-05-05 19:56 47.96808 12.08249 33867 ft 504 kts 52°
2026-05-05 19:56 48.01213 12.16306 33868 ft 504 kts 52°
2026-05-05 19:57 48.05628 12.24401 33866 ft 502 kts 52°
2026-05-05 19:57 48.10022 12.32492 33869 ft 501 kts 52°
2026-05-05 19:58 48.14397 12.40583 33863 ft 500 kts 52°
2026-05-05 19:58 48.18753 12.48656 33855 ft 499 kts 52°
2026-05-05 19:59 48.23324 12.56407 33855 ft 500 kts 45°
2026-05-05 19:59 48.28518 12.63265 33851 ft 498 kts 39°
2026-05-05 20:00 48.33856 12.69799 33849 ft 497 kts 40°
2026-05-05 20:00 48.39201 12.76398 33835 ft 496 kts 40°
2026-05-05 20:01 48.44497 12.83004 33833 ft 496 kts 41°
2026-05-05 20:01 48.49772 12.89617 33838 ft 495 kts 41°
2026-05-05 20:02 48.54925 12.96408 33830 ft 493 kts 45°
2026-05-05 20:02 48.59728 13.03737 33821 ft 491 kts 47°
2026-05-05 20:03 48.64471 13.11144 33828 ft 491 kts 47°
2026-05-05 20:03 48.69176 13.18494 33820 ft 491 kts 47°
2026-05-05 20:04 48.73932 13.25929 33812 ft 490 kts 47°
2026-05-05 20:04 48.78667 13.33345 33811 ft 489 kts 47°
2026-05-05 20:05 48.83363 13.40730 33811 ft 489 kts 47°
2026-05-05 20:05 48.88077 13.48167 33810 ft 489 kts 47°
2026-05-05 20:06 48.92753 13.55587 33813 ft 488 kts 48°
2026-05-05 20:06 48.97407 13.63049 33812 ft 488 kts 48°
2026-05-05 20:07 49.02057 13.70541 33811 ft 488 kts 49°
2026-05-05 20:07 49.06703 13.78049 33814 ft 489 kts 49°
2026-05-05 20:08 49.11363 13.85597 33797 ft 488 kts 48°
2026-05-05 20:08 49.15995 13.93120 33796 ft 487 kts 49°
2026-05-05 20:09 49.20602 14.00628 33788 ft 486 kts 48°
2026-05-05 20:09 49.25212 14.08161 33777 ft 487 kts 48°
2026-05-05 20:10 49.29829 14.15727 33773 ft 487 kts 48°
2026-05-05 20:10 49.34432 14.23291 33768 ft 486 kts 48°
2026-05-05 20:11 49.39059 14.30917 33768 ft 487 kts 48°
2026-05-05 20:11 49.43655 14.38517 33764 ft 485 kts 47°
2026-05-05 20:12 49.48219 14.46083 33762 ft 486 kts 47°
2026-05-05 20:12 49.52803 14.53708 33764 ft 485 kts 47°
2026-05-05 20:13 49.57343 14.61280 33767 ft 483 kts 47°
2026-05-05 20:13 49.61911 14.68918 33759 ft 483 kts 48°
2026-05-05 20:14 49.66436 14.76514 33824 ft 484 kts 48°
2026-05-05 20:14 49.68708 14.80334 34129 ft 483 kts 48°
2026-05-05 20:14 49.70961 14.84129 34511 ft 480 kts 48°
2026-05-05 20:14 49.73207 14.87916 34872 ft 476 kts 48°
2026-05-05 20:15 49.75414 14.91645 35159 ft 475 kts 48°
2026-05-05 20:15 49.77623 14.95384 35366 ft 474 kts 48°
2026-05-05 20:15 49.79858 14.99171 35544 ft 475 kts 47°
2026-05-05 20:15 49.82074 15.02930 35707 ft 476 kts 47°
2026-05-05 20:16 49.84301 15.06714 35856 ft 477 kts 47°
2026-05-05 20:16 49.86519 15.10490 36025 ft 477 kts 47°